Change the Weather History Date:

Sunday, October 23, 2011

  Actual Average (KOGB) Record (KOGB)
Temperature  
Mean Temperature 54 °F 63 °F  
Max Temperature 69 °F 75 °F 90 °F (2007)
Min Temperature 39 °F 51 °F 31 °F (1974)
Degree Days  
Heating Degree Days 11 4  
Month to date heating degree days 47  
Since 1 July heating degree days 51  
Cooling Degree Days 0 2  
Month to date cooling degree days 81  
Year to date cooling degree days 2075  
Growing Degree Days 4 (Base 50)    
Moisture  
Dew Point 45 °F    
Average Humidity 73    
Maximum Humidity 100    
Minimum Humidity 43    
Precipitation  
Precipitation 0.00 in 0.08 in 2.04 in (1990)
Month to date precipitation 2.81  
Year to date precipitation 39.91  
Sea Level Pressure  
Sea Level Pressure 30.10 in    
Wind  
Wind Speed 1 mph (NE)    
Max Wind Speed 10 mph    
Max Gust Speed -    
Visibility 10 miles    
Events      
T = Trace of Precipitation, MM = Missing Value Source: NWS Daily Summary

Daily Weather History Graph

Daily Weather History Graph

Search for Another Location

Airport or City:

Trip Planner

Search our weather history database for the weather conditions in past years. The results will help you decide how hot, cold, wet, or windy it might be!

Date:

Astronomy

Oct. 23, 2011 Rise Set
Actual Time 7:36 AM EDT 6:43 PM EDT
Civil Twilight 7:10 AM EDT 7:08 PM EDT
Nautical Twilight 6:41 AM EDT 7:37 PM EDT
Astronomical Twilight 6:13 AM EDT 8:06 PM EDT
Moon 3:52 AM EDT (10/23) 4:24 PM EDT (10/23)
Length of Visible Light 11h 57m
Length of Day
11h 07m
Waning Crescent, 14% of the Moon is Illuminated
Oct 23
Waning Crescent
Oct 26
New
Nov 2
First Quarter
Nov 10
Full
Nov 18
Last Quarter

Hourly Weather History & Observations

Time (EDT) Temp. Dew Point Humidity Pressure Visibility Wind Dir Wind Speed Gust Speed Precip Events Conditions
12:15 AM 44.6 °F 44.6 °F 100% 30.11 in 10.0 mi Calm Calm - N/A   Clear
12:35 AM 44.6 °F 44.6 °F 100% 30.11 in 10.0 mi Calm Calm - N/A   Clear
12:55 AM 44.6 °F 42.8 °F 93% 30.10 in 10.0 mi Calm Calm - N/A   Clear
1:15 AM 44.6 °F 42.8 °F 93% 30.10 in 10.0 mi Calm Calm - N/A   Clear
1:35 AM 42.8 °F 42.8 °F 100% 30.10 in 10.0 mi Calm Calm - N/A   Clear
1:55 AM 42.8 °F 42.8 °F 100% 30.10 in 10.0 mi Calm Calm - N/A   Clear
2:15 AM 42.8 °F 42.8 °F 100% 30.10 in 10.0 mi Calm Calm - N/A   Clear
2:35 AM 42.8 °F 42.8 °F 100% 30.10 in 10.0 mi Calm Calm - N/A   Clear
3:15 AM 42.8 °F 42.8 °F 100% 30.09 in 10.0 mi Calm Calm - N/A   Clear
3:35 AM 42.8 °F 41.0 °F 93% 30.09 in 10.0 mi Calm Calm - N/A   Clear
3:55 AM 42.8 °F 39.2 °F 87% 30.09 in 10.0 mi Calm Calm - N/A   Clear
4:15 AM 42.8 °F 39.2 °F 87% 30.09 in 10.0 mi Calm Calm - N/A   Clear
4:35 AM 42.8 °F 39.2 °F 87% 30.09 in 10.0 mi Calm Calm - N/A   Clear
5:15 AM 41.0 °F 39.2 °F 93% 30.08 in 10.0 mi Calm Calm - N/A   Clear
5:35 AM 39.2 °F 39.2 °F 100% 30.09 in 10.0 mi Calm Calm - N/A   Clear
5:55 AM 39.2 °F 39.2 °F 100% 30.09 in 10.0 mi Calm Calm - N/A   Clear
6:15 AM 39.2 °F 39.2 °F 100% 30.09 in 10.0 mi Calm Calm - N/A   Clear
6:35 AM 39.2 °F 39.2 °F 100% 30.09 in 10.0 mi Calm Calm - N/A   Clear
6:55 AM 39.2 °F 39.2 °F 100% 30.10 in 10.0 mi Calm Calm - N/A   Clear
7:15 AM 39.2 °F 37.4 °F 93% 30.11 in 10.0 mi Calm Calm - N/A   Clear
7:35 AM 39.2 °F 39.2 °F 100% 30.12 in 10.0 mi Calm Calm - N/A   Clear
7:55 AM 42.8 °F 42.8 °F 100% 30.12 in 10.0 mi Calm Calm - N/A   Clear
8:15 AM 42.8 °F 41.0 °F 93% 30.13 in 10.0 mi Calm Calm - N/A   Clear
8:35 AM 44.6 °F 42.8 °F 93% 30.13 in 10.0 mi Calm Calm - N/A   Clear
8:55 AM 46.4 °F 44.6 °F 93% 30.14 in 10.0 mi Calm Calm - N/A   Clear
9:35 AM 51.8 °F 46.4 °F 82% 30.15 in 10.0 mi Calm Calm - N/A   Clear
9:55 AM 55.4 °F 48.2 °F 77% 30.15 in 10.0 mi Calm Calm - N/A   Clear
10:15 AM 57.2 °F 50.0 °F 77% 30.15 in 10.0 mi Calm Calm - N/A   Clear
10:35 AM 59.0 °F 48.2 °F 67% 30.15 in 10.0 mi Calm Calm - N/A   Clear
10:55 AM 62.6 °F 48.2 °F 59% 30.14 in 10.0 mi NE 3.5 mph - N/A   Clear
11:15 AM 62.6 °F 48.2 °F 59% 30.15 in 10.0 mi NE 6.9 mph - N/A   Clear
11:35 AM 64.4 °F 46.4 °F 52% 30.15 in 10.0 mi ENE 9.2 mph - N/A   Clear
11:55 AM 66.2 °F 46.4 °F 49% 30.15 in 10.0 mi NE 8.1 mph - N/A   Clear
12:15 PM 64.4 °F 46.4 °F 52% 30.15 in 10.0 mi East 4.6 mph - N/A   Clear
12:35 PM 66.2 °F 44.6 °F 46% 30.15 in 10.0 mi ENE 10.4 mph - N/A   Clear
12:55 PM 66.2 °F 46.4 °F 49% 30.14 in 10.0 mi ENE 9.2 mph - N/A   Clear
1:15 PM 66.2 °F 46.4 °F 49% 30.13 in 10.0 mi Calm Calm - N/A   Clear
1:35 PM 66.2 °F 46.4 °F 49% 30.13 in 10.0 mi ESE 6.9 mph - N/A   Clear
1:55 PM 68.0 °F 46.4 °F 46% 30.12 in 10.0 mi Calm Calm - N/A   Clear
2:15 PM 69.8 °F 46.4 °F 43% 30.11 in 10.0 mi North 5.8 mph - N/A   Clear
2:35 PM 69.8 °F 46.4 °F 43% 30.10 in 10.0 mi Calm Calm - N/A   Clear
2:55 PM 69.8 °F 46.4 °F 43% 30.09 in 10.0 mi ENE 6.9 mph - N/A   Clear
3:15 PM 69.8 °F 46.4 °F 43% 30.08 in 10.0 mi Calm Calm - N/A   Clear
3:35 PM 69.8 °F 46.4 °F 43% 30.07 in 10.0 mi North 5.8 mph - N/A   Clear
3:55 PM 69.8 °F 46.4 °F 43% 30.07 in 10.0 mi North 8.1 mph - N/A   Clear
4:15 PM 69.8 °F 46.4 °F 43% 30.07 in 10.0 mi Calm Calm - N/A   Clear
4:35 PM 69.8 °F 46.4 °F 43% 30.06 in 10.0 mi ENE 4.6 mph - N/A   Clear
4:55 PM 69.8 °F 46.4 °F 43% 30.06 in 10.0 mi ENE 4.6 mph - N/A   Clear
5:35 PM 69.8 °F 46.4 °F 43% 30.05 in 10.0 mi NNE 6.9 mph - N/A   Clear
5:55 PM 69.8 °F 46.4 °F 43% 30.05 in 10.0 mi ENE 3.5 mph - N/A   Clear
6:15 PM 68.0 °F 46.4 °F 46% 30.06 in 10.0 mi Calm Calm - N/A   Clear
6:35 PM 64.4 °F 48.2 °F 56% 30.06 in 10.0 mi Calm Calm - N/A   Clear
6:55 PM 60.8 °F 51.8 °F 72% 30.07 in 10.0 mi Calm Calm - N/A   Clear
7:15 PM 60.8 °F 51.8 °F 72% 30.08 in 10.0 mi Calm Calm - N/A   Clear
7:35 PM 57.2 °F 51.8 °F 82% 30.08 in 10.0 mi Calm Calm - N/A   Clear
7:55 PM 55.4 °F 51.8 °F 88% 30.08 in 10.0 mi Calm Calm - N/A   Clear
8:15 PM 55.4 °F 51.8 °F 88% 30.09 in 10.0 mi Calm Calm - N/A   Clear
8:35 PM 53.6 °F 50.0 °F 88% 30.10 in 10.0 mi Calm Calm - N/A   Clear
8:55 PM 51.8 °F 50.0 °F 94% 30.11 in 10.0 mi Calm Calm - N/A   Clear
9:15 PM 51.8 °F 50.0 °F 94% 30.11 in 10.0 mi Calm Calm - N/A   Clear
9:35 PM 51.8 °F 50.0 °F 94% 30.11 in 10.0 mi Calm Calm - N/A   Clear
9:55 PM 51.8 °F 48.2 °F 88% 30.11 in 10.0 mi Calm Calm - N/A   Clear
10:15 PM 50.0 °F 48.2 °F 94% 30.11 in 10.0 mi Calm Calm - N/A   Clear
10:35 PM 48.2 °F 48.2 °F 100% 30.11 in 10.0 mi Calm Calm - N/A   Clear
10:55 PM 50.0 °F 48.2 °F 94% 30.12 in 10.0 mi Calm Calm - N/A   Clear
11:15 PM 48.2 °F 48.2 °F 100% 30.12 in 10.0 mi Calm Calm - N/A   Clear
11:35 PM 48.2 °F 46.4 °F 93% 30.12 in 10.0 mi Calm Calm - N/A   Clear
11:55 PM 48.2 °F 46.4 °F 93% 30.12 in 10.0 mi Calm Calm - N/A   Clear